Location: Praha
(50.0830°N, 14.4670°E)
Time: 06:23:17
(UTC+01:00)

ISS - Pass Details

Date: 28 November 2019
Orbit: 411 x 421 km, 51.6° (Epoch: 15 December)

Event Time Altitude Azimuth Distance (km) Brightness Sun altitude
Rises 18:24:10 0° 263° (W) 2,356 1.6 -21.6°
Reaches altitude 10° 18:26:16 10° 265° (W) 1,496 0.2 -21.9°
Enters shadow 18:29:01 55° 288° (WNW) 512 -3.1 -22.3°
